Showing default

COSMOS 252, 3530

Orbit data source: Space-Track

COSMOS 252, 3530 is a payload satellite owned by PKO (CIS) in LEO that was launched on Fri, 01 Nov 1968 UTC via a TSIKLON-2A launch vehicle from the Tyuratam Missile And Space Complex (TTMTR). Payload-class satellites include a variety of spacecraft equipped with specific instruments for various scientific and technological missions. These include communications satellites like Starlink; space stations such as the ISS; scientific satellites like the Hubble; Earth observation satellites from companies like Planet Labs, Umbra, and HawkEye 360; GPS; miniature CubeSats for education and research; and military/defense satellites.

Loading next visibility...
Identifier
3530, 1968-097A
Orbit
LEO
Country
Flag of CISCIS
Related business
Manufacturer
TSKBM/KB1
Mission
Spacecraft
Bus & Motor
IS, Unknown motor
Mass
1,400 kg wet, ~1,400 kg dry
Launch date (UTC)
1968-11-01 (57 years ago)
Launch vehicle
TSIKLON-2A
Launch site
Tyuratam Missile And Space Complex (TTMTR)
Object type
Payload
Rocket body
Debris
Shape & HBR
Unknown
Radar Cross Section
Large (>1 m²)

Expand to show TLE details & history
Last TLE update: 14 hours ago

TLE from 14 hours ago
0 COSMOS 252
1 03530U 68097A   25303.28991700  .00000051  00000-0  62005-4 0  9993
2 03530  62.3251 357.2826 0994942   8.3935 353.2391 12.88188817676333
Epoch: 2025-10-30T06:57Z
TLE epoch observation values (Epoch: 2025-10-30T06:57:28.828Z)
Latitude
-0.00009°
Longitude
-145.93839°
Altitude
552.056 km
Speed
7.951 km/s
True Right ascension
23h 49m 07s
True Declination
0° 00' 00"
Sunlit
Object was in full shadow at epoch
Visualization orbit readout
Latitude
Unknown
Longitude
Unknown
Altitude
Unknown
Speed
Unknown
Apparent Right ascension
Unknown
Apparent Declination
Unknown
Sunlit
N/A
Visualization observer readout
Local Sidereal Time
16:28:17
Azimuth
Unknown
Elevation
Unknown
Doppler factor
Unknown
Orbital elements
Apogee altitude
2,072.395 km
Perigee altitude
543.003 km
Semi-major axis
7,685.836 km
Eccentricity
0.09949
Inclination
62.3251°
RAAN
357.2826°
Arg. of periapsis
8.3935°
True anomaly
351.70919°
Mean anomaly
353.2391°
Eccentric anomaly
352.49448°
Mean motion
3.22112 °/min
Orbital period
111.76 mins
BSTAR
0.000062005
Loading maneuver chart data...
Computing Atmospheric mass density...

Documentation

Showing up to 5 results
|